Total_Precipitation_Accumulation
0.09 0.13 0.29 0.71 2.31 5.01 4.85 4.20 3.63 3.13 3.16 2.47 2.14 1.93 1.94 2.00 1.52 1.17 1.02 1.13 1.35 1.51 1.13 0.91 0.66 0.62 0.78 0.96 1.14 1.29 1.25 1.18 1.33 1.49 1.29 0.93 0.62 0.39 0.32 0.31 0.41 0.44 0.28
0.06 0.12 0.15 0.27 1.06 2.90 4.50 3.73 3.80 3.47 3.58 2.98 2.67 2.63 2.55 2.59 2.10 2.09 1.26 0.94 0.94 1.06 1.37 1.29 1.02 0.73 0.50 0.45 0.55 0.85 1.07 1.14 1.26 1.45 1.25 1.09 0.78 0.50 0.27 0.29 0.27 0.32 0.40
0.06 0.06 0.11 0.16 0.47 1.15 3.46 4.17 3.46 3.05 3.28 3.78 3.26 2.43 2.55 2.76 2.14 1.89 1.67 1.34 1.32 1.23 1.00 1.14 1.09 1.02 0.89 0.66 0.48 0.51 0.67 0.73 0.80 1.08 1.24 1.12 0.76 0.42 0.26 0.25 0.23 0.21 0.26
0.05 0.03 0.07 0.06 0.11 0.45 1.82 4.36 3.91 2.93 3.17 3.38 3.52 2.87 2.21 2.21 1.99 1.96 2.11 1.88 1.72 1.74 1.43 1.29 1.32 1.14 1.10 1.01 0.90 0.78 0.72 0.88 0.83 0.79 0.87 0.83 0.59 0.51 0.29 0.13 0.23 0.31 0.26
0.04 0.03 0.03 0.05 0.09 0.31 1.00 2.56 3.40 4.26 3.87 4.22 4.12 3.98 3.42 2.50 2.00 2.22 2.09 1.82 1.67 1.76 2.10 1.94 1.95 2.02 1.89 1.59 1.37 1.28 1.10 0.99 0.95 0.95 0.83 0.96 0.85 0.71 0.74 0.46 0.17 0.17 0.16
0.04 0.04 0.05 0.09 0.15 0.34 0.54 1.69 2.71 3.47 4.53 5.19 5.83 4.81 3.91 3.44 2.79 2.28 2.34 2.13 1.89 1.52 1.67 1.83 1.76 1.84 2.19 2.06 2.04 1.90 1.50 1.28 1.20 1.13 1.03 0.97 1.05 1.00 1.04 0.86 0.49 0.39 0.23
0.08 0.07 0.05 0.13 0.24 0.29 0.49 0.66 1.69 2.49 3.40 4.73 5.95 5.52 4.67 3.12 2.60 2.27 2.24 2.18 2.28 2.00 1.76 1.67 1.66 1.65 1.36 1.46 1.33 1.46 1.72 1.65 1.43 1.34 1.40 1.44 1.34 1.35 1.36 1.40 1.04 0.82 0.51
0.18 0.16 0.14 0.17 0.27 0.40 0.62 0.70 0.81 1.20 2.06 3.19 4.60 4.59 4.15 3.53 3.24 2.58 1.83 1.44 1.42 1.86 1.93 1.72 1.39 1.26 1.45 1.34 1.38 1.40 1.35 1.47 1.75 1.82 1.78 1.62 1.51 1.64 1.83 1.91 1.83 1.52 0.99
0.33 0.28 0.31 0.35 0.50 0.48 0.58 0.82 0.72 0.93 1.18 2.12 3.00 3.90 4.09 3.35 3.16 3.30 3.08 1.72 1.18 1.20 1.66 1.61 1.30 1.01 0.85 1.01 1.16 1.16 1.18 1.29 1.32 1.27 1.31 1.30 1.12 1.15 1.30 1.59 1.87 2.32 1.97
0.61 0.48 0.54 0.53 0.65 0.52 0.46 0.74 0.76 0.58 0.78 1.36 1.77 2.66 3.82 4.07 3.65 3.15 3.17 2.87 1.81 1.42 1.34 1.41 1.22 0.97 0.81 0.68 0.66 0.71 0.72 0.99 1.08 1.14 1.24 1.23 1.14 1.18 1.32 1.48 1.57 1.94 2.23
0.93 0.95 0.96 0.89 0.78 0.71 0.55 0.68 0.83 0.61 0.62 0.84 1.17 1.55 2.28 3.26 3.42 3.77 3.20 3.11 2.79 2.06 1.90 1.83 1.76 1.33 0.97 0.70 0.67 0.55 0.50 0.58 0.71 0.90 1.07 1.05 1.03 1.24 1.26 1.37 1.61 1.72 1.85
1.82 1.56 1.16 1.25 1.45 1.48 1.13 1.12 1.31 0.93 0.58 0.64 0.66 0.83 1.02 1.86 2.02 2.61 2.97 3.15 2.82 2.66 2.02 1.86 1.88 1.75 1.49 1.13 0.88 0.71 0.64 0.52 0.46 0.50 0.75 0.81 1.02 1.19 1.22 1.38 1.38 1.35 1.21
2.28 2.10 1.64 2.03 2.40 2.50 1.91 1.35 1.50 1.33 0.86 0.69 0.78 0.88 0.82 1.03 1.17 1.65 1.99 2.32 2.86 2.46 2.28 2.00 2.12 1.95 1.83 1.66 1.32 1.10 1.00 0.91 0.73 0.64 0.63 0.57 0.79 0.95 0.90 0.92 0.97 1.04 1.16
3.04 3.15 2.67 2.52 2.79 2.93 2.48 2.14 2.13 2.10 1.69 1.79 1.43 0.99 1.08 1.30 1.03 0.99 1.43 1.52 2.11 2.81 2.30 2.26 1.61 1.37 1.57 1.68 1.65 1.50 1.36 1.20 1.11 0.95 0.83 0.78 0.76 0.71 0.77 0.94 0.97 1.04 1.33
3.43 3.55 3.50 3.46 3.18 2.95 2.98 3.17 3.40 3.42 3.16 2.68 1.79 1.46 1.34 1.07 1.23 1.34 1.48 1.84 1.83 2.22 2.49 2.49 2.24 1.64 1.42 1.54 1.52 1.45 1.45 1.42 1.33 1.26 1.25 1.12 1.05 0.95 0.93 1.02 1.04 1.34 1.46
2.29 2.35 2.40 2.64 2.65 2.73 3.20 3.23 3.17 3.11 3.12 2.79 2.73 2.46 1.71 1.31 0.96 1.12 1.26 1.73 2.08 2.21 3.01 2.80 3.08 2.67 2.04 1.98 1.76 1.66 1.77 1.83 1.85 1.65 1.33 1.30 1.44 1.26 1.26 1.13 1.08 1.28 1.74
1.35 1.18 1.13 1.20 1.40 1.63 1.72 1.82 2.34 2.81 2.83 3.25 3.04 2.58 2.32 1.88 1.51 1.23 1.41 1.50 2.02 2.31 2.98 3.27 3.22 3.51 3.41 3.37 2.62 2.39 2.11 2.39 2.41 2.07 1.97 1.79 1.44 1.62 1.54 1.85 1.79 1.73 1.84
0.82 0.74 0.72 0.65 0.65 0.73 0.69 0.80 0.85 1.08 1.58 2.14 2.63 2.58 2.87 2.83 3.09 2.53 2.27 2.58 2.65 2.92 3.07 3.43 3.46 2.71 2.89 3.12 2.71 2.38 1.92 1.70 1.61 1.70 1.62 1.68 1.77 1.72 1.64 1.77 2.32 2.08 1.68
0.69 0.74 0.77 0.71 0.62 0.58 0.57 0.59 0.59 0.68 0.74 0.91 1.28 1.65 2.22 2.70 2.66 2.82 3.30 3.16 3.41 3.58 3.51 3.27 3.04 2.43 2.26 2.36 2.24 2.52 2.46 2.24 1.81 1.54 1.45 1.63 1.53 1.73 1.83 1.87 2.18 2.12 1.96
0.61 0.59 0.54 0.58 0.54 0.58 0.61 0.65 0.64 0.62 0.76 0.90 1.05 1.45 2.06 2.19 2.23 1.86 2.34 2.44 2.05 2.13 2.21 2.24 2.31 2.33 1.71 1.83 1.57 1.56 1.92 2.21 1.88 1.77 1.42 1.75 1.27 1.69 1.84 1.52 1.45 1.61 1.29
0.56 0.53 0.48 0.56 0.78 0.74 0.78 0.86 0.80 1.01 1.24 1.09 1.08 1.32 1.49 1.72 2.09 2.23 1.94 2.23 2.07 1.62 1.60 1.69 1.40 1.28 1.20 1.09 1.34 1.21 1.15 1.30 1.54 1.41 1.17 1.03 1.36 1.29 1.24 1.32 1.25 1.51 1.45
0.52 0.70 0.54 0.64 0.83 0.88 1.12 1.18 1.17 1.26 1.17 1.13 1.18 1.17 1.21 1.25 1.36 1.70 1.97 1.95 2.23 2.01 1.58 1.44 1.38 1.22 1.15 1.11 1.07 1.01 0.97 1.29 1.37 1.52 1.33 1.35 1.70 1.02 0.96 1.10 1.39 1.72 1.68
0.13 0.31 0.29 0.36 0.39 0.48 0.62 0.78 0.80 0.72 0.73 0.68 0.83 0.98 1.03 1.07 1.09 1.10 1.37 1.59 1.81 2.03 2.01 1.76 1.65 1.41 1.10 1.12 1.11 1.02 0.97 0.87 0.73 0.83 1.28 1.56 1.14 0.94 1.03 1.27 1.33 1.24 1.08
0.06 0.05 0.09 0.11 0.15 0.19 0.25 0.36 0.31 0.34 0.43 0.51 0.60 0.72 0.91 0.98 0.95 0.97 1.03 1.16 1.40 1.67 1.83 1.77 1.78 1.70 1.39 1.13 1.21 1.12 1.14 0.98 0.78 0.89 1.00 1.07 1.27 1.18 0.89 0.86 0.70 0.46 0.63
0.16 0.15 0.13 0.12 0.11 0.11 0.13 0.16 0.20 0.27 0.40 0.50 0.58 0.64 0.75 0.91 0.93 0.99 1.28 1.46 1.58 1.90 2.17 2.22 2.01 2.01 1.95 1.90 1.95 1.86 1.67 1.67 1.64 1.44 1.10 1.09 1.10 1.42 1.30 0.99 0.66 0.64 0.88
0.11 0.10 0.08 0.07 0.09 0.16 0.21 0.23 0.26 0.32 0.41 0.48 0.61 0.67 0.71 0.77 0.76 0.75 0.75 0.91 1.27 1.39 1.64 1.88 2.15 2.16 2.13 2.02 1.93 1.86 1.96 2.15 2.30 2.38 1.84 1.34 1.13 1.33 1.76 1.72 1.67 1.47 1.46